| time (UTC) | temp F | wind direction | speed MPH | gust MPH | rain 1hr in | rain 24hr in | rain mn in | humidity % | barometer mb |
| 20260509130031 | 63 | 59 | 1.0 | 5.0 | 0.00 | 0.00 | 0.00 | 41 | 1007.9 |
| 20260509124523 | 62 | 58 | 4.0 | 5.0 | 0.00 | 0.00 | 0.00 | 41 | 1007.6 |
| 20260509123018 | 62 | 58 | 2.0 | 3.0 | 0.00 | 0.00 | 0.00 | 41 | 1007.5 |
| 20260509121523 | 62 | 57 | 0.0 | 2.0 | 0.00 | 0.00 | 0.00 | 42 | 1007.1 |
| 20260509120013 | 62 | 57 | 2.0 | 3.0 | 0.00 | 0.00 | 0.00 | 41 | 1007.0 |
| 20260509114522 | 62 | 58 | 1.0 | 4.0 | 0.00 | 0.00 | 0.00 | 41 | 1006.6 |
| 20260509113010 | 63 | 57 | 2.0 | 5.0 | 0.00 | 0.00 | 0.00 | 40 | 1006.6 |
| 20260509111508 | 64 | 57 | 1.0 | 3.0 | 0.00 | 0.00 | 0.00 | 38 | 1006.5 |
| 20260509110006 | 64 | 57 | 1.0 | 4.0 | 0.00 | 0.00 | 0.00 | 38 | 1006.5 |
| 20260509104506 | 64 | 58 | 3.0 | 5.0 | 0.00 | 0.00 | 0.00 | 38 | 1006.5 |
| 20260509103003 | 64 | 72 | 2.0 | 5.0 | 0.00 | 0.00 | 0.00 | 38 | 1006.3 |
| 20260509101501 | 65 | 72 | 3.0 | 6.0 | 0.00 | 0.00 | 0.00 | 37 | 1006.4 |
| 20260509100059 | 65 | 73 | 3.0 | 5.0 | 0.00 | 0.00 | 0.00 | 37 | 1006.3 |
| 20260509094558 | 65 | 74 | 3.0 | 5.0 | 0.00 | 0.00 | 0.00 | 36 | 1006.3 |
| 20260509093059 | 66 | 81 | 3.0 | 5.0 | 0.00 | 0.00 | 0.00 | 36 | 1006.2 |
| 20260509091555 | 66 | 65 | 3.0 | 8.0 | 0.00 | 0.00 | 0.00 | 35 | 1006.3 |
| 20260509090052 | 67 | 68 | 5.0 | 8.0 | 0.00 | 0.00 | 0.00 | 35 | 1006.3 |
| 20260509084551 | 67 | 58 | 4.0 | 6.0 | 0.00 | 0.00 | 0.00 | 35 | 1006.5 |
| 20260509083050 | 67 | 63 | 4.0 | 6.0 | 0.00 | 0.00 | 0.00 | 35 | 1006.4 |
| 20260509081550 | 68 | 64 | 5.0 | 8.0 | 0.00 | 0.00 | 0.00 | 33 | 1006.3 |
| 20260509080043 | 68 | 64 | 6.0 | 9.0 | 0.00 | 0.00 | 0.00 | 33 | 1006.4 |
| 20260509074553 | 68 | 60 | 7.0 | 10.0 | 0.00 | 0.00 | 0.00 | 33 | 1006.4 |
| 20260509073038 | 69 | 68 | 6.0 | 9.0 | 0.00 | 0.00 | 0.00 | 33 | 1006.5 |
| 20260509071536 | 69 | 57 | 5.0 | 7.0 | 0.00 | 0.00 | 0.00 | 32 | 1006.5 |
| 20260509070035 | 69 | 63 | 4.0 | 8.0 | 0.00 | 0.00 | 0.00 | 31 | 1006.7 |
| 20260509064540 | 70 | 63 | 4.0 | 6.0 | 0.00 | 0.00 | 0.00 | 31 | 1006.7 |
| 20260509063029 | 70 | 67 | 4.0 | 8.0 | 0.00 | 0.00 | 0.00 | 30 | 1006.8 |
| 20260509061528 | 71 | 74 | 2.0 | 6.0 | 0.00 | 0.00 | 0.00 | 29 | 1007.2 |
| 20260509060023 | 71 | 80 | 3.0 | 8.0 | 0.00 | 0.00 | 0.00 | 28 | 1006.8 |
| 20260509054523 | 72 | 59 | 4.0 | 5.0 | 0.00 | 0.00 | 0.00 | 27 | 1006.8 |
| 20260509053022 | 73 | 71 | 4.0 | 9.0 | 0.00 | 0.00 | 0.00 | 25 | 1006.8 |
| 20260509051524 | 75 | 116 | 6.0 | 12.0 | 0.00 | 0.00 | 0.00 | 21 | 1006.5 |
| 20260509050022 | 78 | 94 | 4.0 | 9.0 | 0.00 | 0.00 | 0.00 | 16 | 1006.5 |
| 20260509044520 | 78 | 211 | 2.0 | 3.0 | 0.00 | 0.00 | 0.00 | 15 | 1006.2 |
| 20260509043020 | 79 | 212 | 1.0 | 2.0 | 0.00 | 0.00 | 0.00 | 16 | 1006.3 |
| 20260509041520 | 79 | 212 | 0.0 | 3.0 | 0.00 | 0.00 | 0.00 | 15 | 1006.1 |
| 20260509040019 | 79 | 210 | 2.0 | 3.0 | 0.00 | 0.00 | 0.00 | 15 | 1006.0 |
| 20260509034536 | 80 | 207 | 3.0 | 6.0 | 0.00 | 0.00 | 0.00 | 15 | 1005.8 |
| 20260509033018 | 81 | 205 | 2.0 | 4.0 | 0.00 | 0.00 | 0.00 | 14 | 1005.7 |
| 20260509031517 | 81 | 206 | 2.0 | 4.0 | 0.00 | 0.00 | 0.00 | 13 | 1005.5 |
| 20260509030020 | 83 | 182 | 2.0 | 4.0 | 0.00 | 0.00 | 0.00 | 12 | 1005.3 |
| 20260509024516 | 83 | 173 | 4.0 | 7.0 | 0.00 | 0.00 | 0.00 | 12 | 1005.2 |
| 20260509023015 | 84 | 169 | 4.0 | 6.0 | 0.00 | 0.00 | 0.00 | 12 | 1004.9 |
| 20260509021517 | 85 | 259 | 1.0 | 3.0 | 0.00 | 0.00 | 0.00 | 10 | 1004.7 |
| 20260509020014 | 86 | 259 | 1.0 | 8.0 | 0.00 | 0.00 | 0.00 | 10 | 1004.6 |
| 20260509014515 | 87 | 296 | 6.0 | 9.0 | 0.00 | 0.00 | 0.00 | 9 | 1004.5 |
| 20260509013013 | 87 | 317 | 6.0 | 12.0 | 0.00 | 0.00 | 0.00 | 9 | 1004.3 |
| 20260509011513 | 87 | 360 | 4.0 | 11.0 | 0.00 | 0.00 | 0.00 | 9 | 1004.2 |
| 20260509010012 | 88 | 36 | 2.0 | 6.0 | 0.00 | 0.00 | 0.00 | 9 | 1004.2 |
| 20260509004510 | 87 | 341 | 8.0 | 15.0 | 0.00 | 0.00 | 0.00 | 9 | 1004.3 |
| 20260509003009 | 87 | 30 | 5.0 | 15.0 | 0.00 | 0.00 | 0.00 | 9 | 1004.4 |
| 20260509001508 | 87 | 12 | 7.0 | 12.0 | 0.00 | 0.00 | 0.00 | 9 | 1004.3 |
| 20260509000107 | 87 | 291 | 6.0 | 19.0 | 0.00 | 0.00 | 0.00 | 9 | 1004.5 |
| 20260508234506 | 87 | 311 | 10.0 | 15.0 | 0.00 | 0.00 | 0.00 | 9 | 1004.4 |
| 20260508233004 | 87 | 294 | 11.0 | 18.0 | 0.00 | 0.00 | 0.00 | 9 | 1004.6 |
| 20260508231504 | 87 | 286 | 11.0 | 16.0 | 0.00 | 0.00 | 0.00 | 9 | 1004.7 |
| 20260508230100 | 86 | 312 | 4.0 | 16.0 | 0.00 | 0.00 | 0.00 | 9 | 1004.9 |
| 20260508224559 | 87 | 312 | 7.0 | 14.0 | 0.00 | 0.00 | 0.00 | 9 | 1004.8 |
| 20260508223057 | 86 | 291 | 2.0 | 14.0 | 0.00 | 0.00 | 0.00 | 8 | 1004.9 |
| 20260508221555 | 86 | 342 | 11.0 | 19.0 | 0.00 | 0.00 | 0.00 | 8 | 1005.0 |
| 20260508220052 | 86 | 5 | 4.0 | 15.0 | 0.00 | 0.00 | 0.00 | 9 | 1005.1 |
| 20260508214602 | 85 | 216 | 1.0 | 9.0 | 0.00 | 0.00 | 0.00 | 11 | 1005.2 |
| 20260508213046 | 85 | 150 | 11.0 | 17.0 | 0.00 | 0.00 | 0.00 | 11 | 1005.4 |
| 20260508211542 | 85 | 334 | 2.0 | 11.0 | 0.00 | 0.00 | 0.00 | 12 | 1005.5 |
| 20260508210041 | 85 | 347 | 3.0 | 14.0 | 0.00 | 0.00 | 0.00 | 13 | 1005.7 |
| 20260508204538 | 84 | 88 | 2.0 | 6.0 | 0.00 | 0.00 | 0.00 | 11 | 1006.0 |
| 20260508203036 | 84 | 84 | 10.0 | 13.0 | 0.00 | 0.00 | 0.00 | 11 | 1006.1 |
| 20260508201533 | 85 | 136 | 6.0 | 11.0 | 0.00 | 0.00 | 0.00 | 12 | 1006.3 |
| 20260508200035 | 83 | 36 | 5.0 | 11.0 | 0.00 | 0.00 | 0.00 | 13 | 1006.7 |
| 20260508194528 | 83 | 80 | 4.0 | 7.0 | 0.00 | 0.00 | 0.00 | 15 | 1006.7 |
| 20260508193028 | 82 | 282 | 3.0 | 12.0 | 0.00 | 0.00 | 0.00 | 17 | 1006.7 |
| 20260508191524 | 82 | 259 | 6.0 | 9.0 | 0.00 | 0.00 | 0.00 | 17 | 1007.2 |
| 20260508190039 | 82 | 169 | 3.0 | 6.0 | 0.00 | 0.00 | 0.00 | 19 | 1007.3 |
| 20260508184529 | 81 | 71 | 6.0 | 11.0 | 0.00 | 0.00 | 0.00 | 19 | 1007.4 |
| 20260508183028 | 82 | 132 | 1.0 | 7.0 | 0.00 | 0.00 | 0.00 | 17 | 1007.6 |
| 20260508181518 | 80 | 275 | 3.0 | 10.0 | 0.00 | 0.00 | 0.00 | 18 | 1007.7 |
| 20260508180011 | 80 | 257 | 2.0 | 7.0 | 0.00 | 0.00 | 0.00 | 17 | 1008.0 |
| 20260508174507 | 79 | 288 | 7.0 | 12.0 | 0.00 | 0.00 | 0.00 | 16 | 1008.3 |
| 20260508173003 | 78 | 292 | 4.0 | 10.0 | 0.00 | 0.00 | 0.00 | 16 | 1008.3 |
| 20260508171606 | 77 | 309 | 3.0 | 11.0 | 0.00 | 0.00 | 0.00 | 18 | 1008.3 |
| 20260508170105 | 76 | 288 | 9.0 | 13.0 | 0.00 | 0.00 | 0.00 | 19 | 1008.5 |
| 20260508164556 | 74 | 318 | 8.0 | 15.0 | 0.00 | 0.00 | 0.00 | 20 | 1008.5 |
| 20260508163046 | 73 | 303 | 12.0 | 16.0 | 0.00 | 0.00 | 0.00 | 21 | 1008.7 |
| 20260508161542 | 73 | 306 | 10.0 | 15.0 | 0.00 | 0.00 | 0.00 | 21 | 1008.9 |
| 20260508160039 | 73 | 306 | 8.0 | 16.0 | 0.00 | 0.00 | 0.00 | 21 | 1009.1 |
| 20260508154536 | 72 | 315 | 10.0 | 16.0 | 0.00 | 0.00 | 0.00 | 24 | 1009.1 |
| 20260508153035 | 71 | 302 | 9.0 | 13.0 | 0.00 | 0.00 | 0.00 | 26 | 1009.2 |
| 20260508151524 | 71 | 317 | 9.0 | 13.0 | 0.00 | 0.00 | 0.00 | 27 | 1009.1 |
| 20260508150019 | 70 | 315 | 9.0 | 17.0 | 0.00 | 0.00 | 0.00 | 28 | 1009.2 |
| 20260508144524 | 69 | 296 | 11.0 | 19.0 | 0.00 | 0.00 | 0.00 | 28 | 1009.3 |
| 20260508143013 | 68 | 304 | 11.0 | 15.0 | 0.00 | 0.00 | 0.00 | 28 | 1009.3 |
| 20260508141510 | 68 | 314 | 10.0 | 16.0 | 0.00 | 0.00 | 0.00 | 28 | 1009.3 |
| 20260508140001 | 67 | 305 | 9.0 | 16.0 | 0.00 | 0.00 | 0.00 | 29 | 1009.2 |
| 20260508134558 | 66 | 308 | 8.0 | 13.0 | 0.00 | 0.00 | 0.00 | 34 | 1009.1 |
| 20260508133053 | 65 | 329 | 2.0 | 6.0 | 0.00 | 0.00 | 0.00 | 40 | 1009.0 |
| 20260508131600 | 64 | 38 | 2.0 | 4.0 | 0.00 | 0.00 | 0.00 | 40 | 1009.0 |